| time (UTC) | temp C | wind direction | speed KPH | gust KPH | rain 1hr cm | rain 24hr cm | rain mn cm | humidity % | barometer mb |
| 20260504081521 | 3 | 270 | 0.0 | 0.0 | 0.00 | 0.00 | 0.00 | 67 | 1007.3 |
| 20260504050104 | 3 | 248 | 0.0 | 0.0 | 0.00 | 0.00 | 0.00 | 69 | 1007.1 |
| 20260504044542 | 3 | 213 | 0.0 | 1.6 | 0.00 | 0.00 | 0.00 | 70 | 1007.0 |
| 20260504043021 | 3 | 231 | 0.0 | 1.6 | 0.00 | 0.00 | 0.00 | 69 | 1006.9 |
| 20260504041601 | 3 | 321 | 0.0 | 1.6 | 0.00 | 0.00 | 0.00 | 68 | 1006.8 |
| 20260504040036 | 3 | 269 | 0.0 | 6.4 | 0.00 | 0.00 | 0.00 | 68 | 1006.8 |
| 20260504034518 | 3 | 234 | 0.0 | 0.0 | 0.00 | 0.00 | 0.00 | 66 | 1006.7 |
| 20260504033057 | 3 | 234 | 0.0 | 0.0 | 0.00 | 0.00 | 0.00 | 65 | 1006.6 |
| 20260504031533 | 4 | 234 | 0.0 | 1.6 | 0.00 | 0.00 | 0.00 | 64 | 1006.6 |
| 20260504030020 | 3 | 261 | 0.0 | 1.6 | 0.00 | 0.03 | 0.00 | 65 | 1006.6 |
| 20260504024601 | 4 | 268 | 0.0 | 1.6 | 0.00 | 0.03 | 0.00 | 65 | 1006.6 |
| 20260504023035 | 5 | 328 | 0.0 | 0.0 | 0.00 | 0.03 | 0.00 | 63 | 1006.5 |
| 20260504021508 | 5 | 328 | 0.0 | 1.6 | 0.00 | 0.03 | 0.00 | 61 | 1006.5 |
| 20260504020047 | 5 | 312 | 0.0 | 1.6 | 0.00 | 0.03 | 0.00 | 60 | 1006.5 |
| 20260504014525 | 6 | 331 | 0.0 | 3.2 | 0.00 | 0.03 | 0.00 | 59 | 1006.5 |
| 20260504013001 | 6 | 267 | 0.0 | 1.6 | 0.00 | 0.03 | 0.00 | 55 | 1006.5 |
| 20260504011540 | 6 | 329 | 0.0 | 0.0 | 0.00 | 0.03 | 0.00 | 54 | 1006.3 |
| 20260504010029 | 7 | 320 | 0.0 | 4.8 | 0.00 | 0.10 | 0.00 | 53 | 1006.1 |
| 20260504004507 | 7 | 292 | 3.2 | 12.9 | 0.00 | 0.10 | 0.00 | 51 | 1005.8 |
| 20260504003046 | 7 | 235 | 0.0 | 8.0 | 0.00 | 0.10 | 0.00 | 51 | 1005.6 |
| 20260504001521 | 7 | 338 | 1.6 | 9.7 | 0.00 | 0.10 | 0.00 | 49 | 1005.3 |
| 20260504000002 | 8 | 302 | 0.0 | 16.1 | 0.00 | 0.10 | 0.00 | 48 | 1005.0 |
| 20260503234539 | 8 | 303 | 0.0 | 6.4 | 0.00 | 0.10 | 0.00 | 46 | 1004.7 |
| 20260503233015 | 8 | 251 | 3.2 | 16.1 | 0.00 | 0.10 | 0.00 | 46 | 1004.5 |
| 20260503231551 | 9 | 282 | 4.8 | 14.5 | 0.00 | 0.10 | 0.00 | 45 | 1004.2 |
| 20260503230028 | 10 | 298 | 4.8 | 17.7 | 0.00 | 0.10 | 0.00 | 44 | 1003.9 |
| 20260503224504 | 10 | 255 | 3.2 | 16.1 | 0.00 | 0.10 | 0.00 | 44 | 1003.7 |
| 20260503223042 | 10 | 335 | 3.2 | 19.3 | 0.00 | 0.10 | 0.00 | 44 | 1003.5 |
| 20260503221521 | 10 | 355 | 0.0 | 14.5 | 0.00 | 0.10 | 0.00 | 48 | 1003.3 |
| 20260503214538 | 10 | 300 | 1.6 | 8.0 | 0.00 | 0.10 | 0.00 | 49 | 1002.9 |
| 20260503213016 | 10 | 323 | 3.2 | 14.5 | 0.00 | 0.10 | 0.00 | 48 | 1002.9 |
| 20260503211555 | 10 | 5 | 0.0 | 14.5 | 0.00 | 0.10 | 0.00 | 50 | 1002.8 |
| 20260503210032 | 10 | 15 | 1.6 | 14.5 | 0.00 | 0.10 | 0.00 | 47 | 1002.7 |
| 20260503204517 | 10 | 69 | 3.2 | 11.3 | 0.00 | 0.10 | 0.00 | 46 | 1002.6 |
| 20260503203005 | 11 | 122 | 3.2 | 25.7 | 0.00 | 0.10 | 0.00 | 46 | 1002.6 |
| 20260503201543 | 10 | 336 | 3.2 | 19.3 | 0.00 | 0.10 | 0.00 | 47 | 1002.6 |
| 20260503200024 | 10 | 82 | 6.4 | 27.4 | 0.00 | 0.10 | 0.00 | 47 | 1002.6 |
| 20260503194604 | 11 | 44 | 4.8 | 19.3 | 0.00 | 0.10 | 0.00 | 48 | 1002.7 |
| 20260503193037 | 10 | 89 | 4.8 | 20.9 | 0.00 | 0.10 | 0.00 | 50 | 1002.8 |
| 20260503191516 | 10 | 282 | 3.2 | 19.3 | 0.00 | 0.10 | 0.00 | 51 | 1002.9 |
| 20260503190055 | 10 | 338 | 6.4 | 19.3 | 0.00 | 0.10 | 0.00 | 50 | 1002.8 |
| 20260503184604 | 10 | 46 | 4.8 | 19.3 | 0.00 | 0.10 | 0.00 | 52 | 1002.8 |
| 20260503183025 | 10 | 332 | 3.2 | 19.3 | 0.00 | 0.10 | 0.00 | 54 | 1002.7 |
| 20260503181506 | 10 | 340 | 3.2 | 20.9 | 0.00 | 0.10 | 0.00 | 56 | 1002.7 |
| 20260503180042 | 9 | 308 | 3.2 | 20.9 | 0.00 | 0.10 | 0.00 | 59 | 1002.9 |
| 20260503174519 | 9 | 24 | 0.0 | 17.7 | 0.00 | 0.10 | 0.00 | 60 | 1002.9 |
| 20260503173058 | 9 | 324 | 6.4 | 17.7 | 0.00 | 0.10 | 0.00 | 61 | 1003.0 |
| 20260503171534 | 8 | 9 | 4.8 | 22.5 | 0.00 | 0.10 | 0.00 | 62 | 1002.9 |